This demonstration page uses our WeatherBlox Daily Observations layout. Learn more.

Hourly Observations for July 7, 2018

Temp ( °F °C ) Dew Point ( °F °C ) Humidity (%) Winds ( mph kmh ) Pressure ( in mb ) Visibility ( mi km ) Precip ( " mm )
12:15 am 00:15 Mostly Cloudy 71 21.5 70 21 97 97 SSE 5 7 30.21 1023 10 16.0934 0 0
12:35 am 00:35 Mostly Cloudy 71 21.5 69 20.7 95 95 SE 6 9 30.21 1023 10 16.0934 0 0
12:55 am 00:55 Partly Cloudy 70 21.1 68 20.1 94 94 SSE 5 7 30.21 1023 10 16.0934 0 0
1:15 am 01:15 Clear 69 20.8 68 19.8 94 94 SE 6 9 30.21 1023 10 16.0934 0 0
1:35 am 01:35 Clear 69 20.5 67 19.3 93 93 SSE 6 9 30.21 1023 10 16.0934 0 0
1:55 am 01:55 Partly Cloudy 69 20.8 67 19.4 92 92 SSE 6 9 30.21 1023 10 16.0934 0 0
2:15 am 02:15 Mostly Cloudy 69 20.8 67 19.5 92 92 SSE 6 9 30.21 1023 10 16.0934 0 0
2:35 am 02:35 Mostly Cloudy 69 20.5 67 19.3 93 93 SSE 7 11 30.18 1022 10 16.0934 0 0
2:55 am 02:55 Partly Cloudy 69 20.6 67 19.2 92 92 SE 8 13 30.18 1022 10 16.0934 0 0
3:15 am 03:15 Partly Cloudy 69 20.8 66 19.1 90 90 SSE 8 13 30.18 1022 10 16.0934 0 0
3:35 am 03:35 Partly Cloudy 69 20.5 66 19.1 92 92 SSE 8 13 30.18 1022 10 16.0934 0 0
3:55 am 03:55 Clear 68 20.1 66 19.1 94 94 SE 8 13 30.18 1022 10 16.0934 0 0
4:15 am 04:15 Partly Cloudy 68 20.1 67 19.2 95 95 SE 8 13 30.18 1022 10 16.0934 0 0
4:35 am 04:35 Mostly Cloudy 68 20.1 67 19.2 95 95 SE 8 13 30.18 1022 10 16.0934 0 0
4:55 am 04:55 Partly Cloudy 68 19.8 66 19.1 96 96 SSE 7 11 30.18 1022 10 16.0934 0 0
5:15 am 05:15 Clear 67 19.4 66 18.9 97 97 SSE 6 9 30.18 1022 10 16.0934 0 0
5:35 am 05:35 Clear 67 19.3 66 18.9 98 98 SE 5 7 30.18 1022 10 16.0934 0 0
5:55 am 05:55 Clear 66 19 65 18.6 98 98 SSE 5 7 30.18 1022 10 16.0934 0 0
6:15 am 06:15 Sunny 66 18.8 65 18.6 99 99 SSE 7 11 30.18 1022 10 16.0934 0 0
6:35 am 06:35 Sunny 66 19.1 66 18.8 98 98 SSE 6 9 30.18 1022 10 16.0934 0 0
6:55 am 06:55 Sunny 67 19.4 66 19 98 98 SSE 7 11 30.18 1022 10 16.0934 0 0
7:15 am 07:15 Sunny 68 20 67 19.2 95 95 SSE 6 9 30.18 1022 10 16.0934 0 0
7:35 am 07:35 Sunny 69 20.5 67 19.5 94 94 S 7 11 30.18 1022 10 16.0934 0 0
7:55 am 07:55 Sunny 70 21.3 68 19.8 91 91 S 8 13 30.18 1022 10 16.0934 0 0
8:15 am 08:15 Sunny 71 21.9 69 20.4 91 91 S 7 11 30.15 1021 10 16.0934 0 0
8:35 am 08:35 Sunny 73 22.8 69 20.8 89 89 S 8 13 30.15 1021 10 16.0934 0 0
8:55 am 08:55 Sunny 74 23.6 69 20.7 84 84 S 8 13 30.15 1021 10 16.0934 0 0
9:15 am 09:15 Sunny 75 24 70 21 83 83 S 10 17 30.15 1021 10 16.0934 0 0
9:35 am 09:35 Sunny 76 24.7 70 21.3 81 81 S 8 13 30.15 1021 10 16.0934 0 0
9:55 am 09:55 Sunny 78 25.8 70 20.9 74 74 S 12 19 30.12 1020 10 16.0934 0 0
10:15 am 10:15 Sunny 80 26.6 69 20.4 69 69 S 12 19 30.09 1019 10 16.0934 0 0
10:35 am 10:35 Sunny 81 27 68 20 66 66 S 14 22 30.09 1019 10 16.0934 0 0
10:55 am 10:55 Sunny 82 27.5 68 19.9 63 63 SSW 17 28 30.09 1019 10 16.0934 0 0
11:15 am 11:15 Sunny 82 28 68 19.9 61 61 S 14 22 30.09 1019 10 16.0934 0 0
11:35 am 11:35 Sunny 83 28.5 68 20.2 61 61 SSW 13 20 30.09 1019 10 16.0934 0 0
11:55 am 11:55 Sunny 83 28.5 68 20.1 60 60 S 12 19 30.09 1019 10 16.0934 0 0
12:15 pm 12:15 Sunny 84 28.7 68 20.1 60 60 SSW 13 20 30.09 1019 10 16.0934 0 0
12:35 pm 12:35 Sunny 84 29 69 20.8 61 61 S 13 20 30.06 1018 10 16.0934 0 0
12:55 pm 12:55 Sunny 85 29.2 70 21 61 61 S 10 17 30.06 1018 10 16.0934 0 0
1:15 pm 13:15 Partly Cloudy 85 29.3 69 20.6 59 59 S 13 20 30.06 1018 10 16.0934 0 0
1:35 pm 13:35 Partly Cloudy 85 29.6 69 20.7 59 59 S 12 19 30.03 1017 10 16.0934 0 0
1:55 pm 13:55 Partly Cloudy 85 29.4 69 20.4 58 58 S 12 19 30.03 1017 10 16.0934 0 0
2:15 pm 14:15 Partly Cloudy 85 29.4 69 20.8 60 60 S 13 20 30.03 1017 10 16.0934 0 0
2:35 pm 14:35 Mostly Cloudy 85 29.7 69 20.8 59 59 S 14 22 30.03 1017 10 16.0934 0 0
2:55 pm 14:55 Partly Cloudy 86 29.9 69 20.6 57 57 S 12 19 30.03 1017 10 16.0934 0 0
3:15 pm 15:15 Partly Cloudy 87 30.3 69 20.8 57 57 S 10 17 30.03 1017 10 16.0934 0 0
3:35 pm 15:35 Partly Cloudy 87 30.6 69 20.7 56 56 S 13 20 30 1016 10 16.0934 0 0
3:55 pm 15:55 Sunny 87 30.6 69 20.4 54 54 SSE 14 22 30 1016 10 16.0934 0 0
4:15 pm 16:15 Partly Cloudy 86 30.2 69 20.4 56 56 SSE 12 19 30 1016 10 16.0934 0 0
4:35 pm 16:35 Partly Cloudy 87 30.4 69 20.5 55 55 SSE 14 22 30 1016 10 16.0934 0 0
4:55 pm 16:55 Sunny 87 30.6 67 19.3 51 51 S 13 20 29.97 1015 10 16.0934 0 0
5:15 pm 17:15 Sunny 87 30.7 67 19.6 52 52 S 12 19 29.97 1015 10 16.0934 0 0
5:35 pm 17:35 Sunny 87 30.6 66 18.8 49 49 S 12 19 29.97 1015 10 16.0934 0 0
5:55 pm 17:55 Sunny 87 30.6 67 19.6 52 52 S 12 19 29.97 1015 10 16.0934 0 0
6:15 pm 18:15 Sunny 87 30.5 68 19.9 53 53 S 9 15 29.97 1015 10 16.0934 0 0
6:35 pm 18:35 Sunny 86 30.1 68 19.8 54 54 S 9 15 29.97 1015 10 16.0934 0 0
6:55 pm 18:55 Sunny 86 29.8 69 20.5 57 57 S 9 15 29.97 1015 10 16.0934 0 0
7:15 pm 19:15 Sunny 85 29.6 69 20.3 57 57 S 9 15 29.97 1015 10 16.0934 0 0
7:35 pm 19:35 Sunny 84 29.1 70 20.9 61 61 S 6 9 29.97 1015 10 16.0934 0 0
7:55 pm 19:55 Sunny 83 28.5 71 21.6 66 66 S 5 7 29.97 1015 10 16.0934 0 0
8:15 pm 20:15 Sunny 82 27.8 70 21.1 67 67 SSE 6 9 30 1016 10 16.0934 0 0
8:35 pm 20:35 Sunny 81 27.2 69 20.4 66 66 SSE 6 9 30 1016 10 16.0934 0 0
8:55 pm 20:55 Sunny 78 25.7 69 20.6 74 74 SE 5 7 30 1016 10 16.0934 0 0
9:15 pm 21:15 Clear 76 24.5 70 21.3 82 82 SE 6 9 30 1016 10 16.0934 0 0
9:35 pm 21:35 Clear 75 24 70 21 83 83 SE 6 9 30.03 1017 10 16.0934 0 0
9:55 pm 21:55 Clear 74 23.2 70 21 87 87 SE 7 11 30.03 1017 10 16.0934 0 0
10:15 pm 22:15 Clear 74 23.2 68 20.2 83 83 SE 8 13 30.03 1017 10 16.0934 0 0
10:35 pm 22:35 Clear 73 23 68 20.1 84 84 SSE 7 11 30.03 1017 10 16.0934 0 0
10:55 pm 22:55 Clear 73 22.9 68 20 84 84 SSE 7 11 30.06 1018 10 16.0934 0 0
11:15 pm 23:15 Clear 73 22.8 67 19.6 82 82 SSE 7 11 30.06 1018 10 16.0934 0 0
11:35 pm 23:35 Clear 73 22.7 67 19.5 82 82 SSE 9 15 30.06 1018 10 16.0934 0 0
11:55 pm 23:55 Clear 73 23 67 19.3 80 80 SSE 9 15 30.06 1018 10 16.0934 0 0

Powered by AerisWeather